Preview of NWS' New Version of Forecast
This preview is not operational and should not be used for support decisions.

Regional Weather Roundup (RWR)

Issued by National Weather Service (NWS)

                            
000
ASUS46 KSEW 180410
RWRWA 

WASHINGTON REGIONAL WEATHER ROUNDUP
NATIONAL WEATHER SERVICE SEATTLE WA
900 PM PDT MON JUN 17 2019

NOTE:"FAIR" INDICATES FEW OR NO CLOUDS BELOW 12,000 FEET WITH NO 
SIGNIFICANT WEATHER AND/OR OBSTRUCTIONS TO VISIBILITY.

WAZ507-509-555>559-180500-
SEATTLE, TACOMA, EVERETT, AND VICINITY
  
CITY           SKY/WX    TMP DP  RH WIND       PRES   REMARKS
EVERETT        PTCLDY    62  55  77 N6        30.14S                  
BOEING FIELD   MOCLDY    73  55  53 CALM      30.10F                  
RENTON         PTCLDY    74  56  53 SW3       30.10F                  
SEATAC AIRPORT MOCLDY    73  56  54 SW7       30.12F                  
JBLM-MCCHORD   CLEAR     68  61  78 NW6       30.13S                  
PUYALLUP       CLOUDY    70  59  68 W6        30.14R                  
BREMERTON      PTCLDY    66  57  72 SW6       30.13R                  
JBLM-FT LEWIS  CLEAR     67  62  82 W7        30.13R                  
TACOMA NARROWS CLEAR     64  55  72 SW7       30.13S                  
$$
 
WAZ001-503-506-510-514-515-180500-
NORTH INTERIOR
  
CITY           SKY/WX    TMP DP  RH WIND       PRES   REMARKS
BELLINGHAM     PTCLDY    64  53  67 S12G21    30.07S                  
FRIDAY HARBOR  MOCLDY    66  51  58 SW8       30.09R                  
EASTSOUND      CLOUDY    64  54  68 S9        30.06S                  
PORT ANGELES   CLOUDY    56  54  93 W14G20    30.16R                  
EDIZ HOOK      CLOUDY    55  53  92 W23G32    30.14S                  
PORT TOWNSEND  MOCLDY    61  55  82 NW3       30.13R                  
NAS WHIDBEY    MOCLDY    59  53  80 SW16G28   30.16R                  
ARLINGTON      PTCLDY    64  56  75 NW9       30.14S                  
BURLINGTON     CLEAR     63  55  77 S10       30.13S                  
$$
 
WAZ020-022-039-040-504-511-512-180500-
SOUTHWEST INTERIOR
  
CITY           SKY/WX    TMP DP  RH WIND       PRES   REMARKS
SHELTON        CLEAR     63  54  72 SW13G22   30.11S                  
OLYMPIA        NOT AVBL                                               
CHEHALIS       FAIR      63  57  82 VRB5      30.17R                  
KELSO          CLEAR     63  56  78 NW10G16   30.18R                  
VANCOUVER      CLEAR     71  54  54 N7        30.13R                  
SCAPPOOSE, OR  CLEAR     68  55  63 NW10      30.13R                  
PORTLAND, OR   PTCLDY    71  54  54 NW10      30.13R                  
$$
 
WAZ021-516-517-180500-
WASHINGTON COAST
  
CITY           SKY/WX    TMP DP  RH WIND       PRES   REMARKS
FORKS          CLOUDY    55  54  96 NW3       30.21S FOG              
HOQUIAM        CLOUDY    56  56 100 NW9       30.20S FOG              
ASTORIA, OR    CLOUDY    59  55  87 NW10      30.21S                  
$$
 
WAZ019-023-024-040-567>569-180500-
CASCADE MOUNTAINS AND COLUMBIA GORGE
  
CITY           SKY/WX    TMP DP  RH WIND       PRES   REMARKS
STAMPEDE PASS  PTCLDY    55  49  80 VRB5      30.19S                  
TROUTDALE, OR  CLEAR     71  55  56 NW8       30.12R                  
HOOD RIVER, OR PTCLDY    73  52  46 SW7       30.06R                  
THE DALLES, OR PTCLDY    77  52  41 W13G22    29.98R                  
$$

WAZ026-027-041>044-520-521-180500-
EAST SLOPES
  
CITY           SKY/WX    TMP DP  RH WIND       PRES   REMARKS
OMAK           PTCLDY    79  43  27 SE8       29.86R                  
WENATCHEE      MOCLDY    77  44  30 W16G26    29.95R                  
ELLENSBURG     MOCLDY    70  50  49 NW20      30.03R                  
YAKIMA         PTCLDY    77  45  32 NW21G29   29.99R                  
SUNNYSIDE ARPT MOCLDY    79  43  28 W9        29.93                   
YAKIMA TC      FAIR      74  42  31 NW15G25   29.99R                  
$$

WAZ028-034-035-180500-
COLUMBIA BASIN
  
CITY           SKY/WX    TMP DP  RH WIND       PRES   REMARKS
EPHRATA        MOCLDY    80  42  25 NW17      29.89S                  
MOSES LAKE     PTCLDY    82  43  25 W12       29.90S                  
PASCO          PTCLDY    79  45  29 NW10      29.90R                  
RICHLAND ARPT  PTCLDY    82  42  24 N6        29.90R                  
HERMISTON, OR  PTCLDY    80  54  40 W17       29.91R                  
$$

WAZ036>038-180500-
NORTHEAST WASHINGTON
  
CITY           SKY/WX    TMP DP  RH WIND       PRES   REMARKS
SPOKANE GEIGER MOCLDY    79  45  29 W13       29.95S                  
SPOKANE FELTS  MOCLDY    76  53  44 CALM      29.93S                  
FAIRCHILD AFB  PTCLDY    75  42  31 SW9       29.96S                  
COEURDALENE,ID PTCLDY    73  56  54 NE6       29.96R                  
DEER PARK      PTCLDY    67  55  65 N8        29.94S                  
$$

WAZ029>033-180500-
SOUTHEAST WASHINGTON
  
CITY           SKY/WX    TMP DP  RH WIND       PRES   REMARKS
PULLMAN        CLEAR     71  52  50 W5        30.01R                  
LEWISTON, ID   CLEAR     80  51  36 W3        29.93R                  
WALLA WALLA    PTCLDY    78  52  40 SE7       29.93F                  
PENDLETON, OR  PTCLDY    70  51  51 W12       29.96R                  
$$